Location: Unspecified
(0.0000°N, 0.0000°E)
Time: 21:42:22
(UTC+00:00)

Vanguard 3 - Visible Passes

Search period start: 25 March 2017 00:00
Search period end: 04 April 2017 00:00
Orbit: 508 x 3265 km, 33.3° (Epoch: 24 March)

Date Brightness Start Highest point End Pass type
(mag) Time Alt. Az. Time Alt. Az. Time Alt. Az.
25 Mar 7.2 04:11:43 86° NW 04:11:52 89° NNE 04:20:13 10° SE visible
26 Mar 9.8 03:02:40 16° E 03:02:40 16° E 03:04:09 10° ESE visible
26 Mar 8.5 05:07:18 20° W 05:10:49 36° SSW 05:19:26 10° SE visible
26 Mar 10.5 18:51:31 10° WNW 18:59:05 17° NW 19:04:48 10° N visible
27 Mar 8.0 03:58:15 48° SSE 03:58:15 48° SSE 04:04:06 10° SE visible
28 Mar 8.5 04:53:48 22° SW 04:55:49 26° SSW 05:02:42 10° SSE visible
28 Mar 10.7 18:36:22 10° WNW 18:43:33 15° NW 18:49:11 10° N visible
29 Mar 9.0 03:44:42 25° SSE 03:44:42 25° SSE 03:47:58 10° SE visible
30 Mar 8.9 04:40:12 18° SSW 04:40:55 18° SSW 04:45:49 10° SSE visible
30 Mar 10.8 18:21:20 10° WNW 18:28:06 14° NNW 18:33:33 10° N visible
31 Mar 9.7 03:31:03 13° SSE 03:31:03 13° SSE 03:31:48 10° SSE visible
01 Apr 9.4 04:26:30 12° SSW 04:26:30 12° SSW 04:28:20 10° S visible
